Home > Weather > Midway > Past weeks

Flag for US Minor Outlying Islands Past Weather in Midway, US Minor Outlying Islands — Yesterday and Last 2 Weeks

Now
77 °F

Mostly cloudy.


Feels Like: 79 °F
Forecast: 77 / 83 °F
Wind: 21 mph from East

Location: Midway Island Naval Air Facility

Current Time: Jul 24, 2016 at 3:41:35 AM

Latest Report: Jul 24, 2016 at 2:56 AM


Visibility: 10 mi

Pressure: 30.14 "Hg

Humidity: 79%

Dew Point: 70 °F

Location of MidwayLocation

Past Weather in Midway — Graph

°F

Midway Temperature Yesterday

Maximum temperature yesterday: 83 °F (at 12:56 PM)
Minimum temperature yesterday: 77 °F (at 12:56 AM)
Average temperature yesterday: 79 °F

High & Low Weather Summary for the Past Weeks

 TemperatureHumidityPressure
High86 °F (Jul 21, 12:56 PM)100% (Jul 22, 4:40 PM)30.20 "Hg (Jul 22, 4:40 PM)
Low70 °F (Jul 22, 4:04 PM)61% (Jul 20, 11:56 AM)29.94 "Hg (Jul 16, 4:56 PM)
Average80 °F77%30.10 "Hg
* Reported Jul 9 1:56 AM — Jul 24 1:56 AM, Midway, Weather by CustomWeather, © 2016

Note: Actual official high and low records may vary slightly from our data, if they occured in-between our weather recording intervals... More about our weather records

Advertising

Midway Weather History for the Previous 24 Hours

Scroll right to see more
 ConditionsComfort  
Time TempWeatherWind HumidityBarometerVisibility
1:56 AM
Sun, Jul 24
77 °FPassing clouds.18 mph79%30.15 "Hg10 mi
12:56 AM77 °FPassing clouds.18 mph79%30.16 "Hg10 mi
12:22 AM77 °FMostly cloudy.18 mph79%30.17 "Hg10 mi
11:56 PM
Sat, Jul 23
78 °FMostly cloudy.17 mph79%30.17 "Hg10 mi
10:56 PM78 °FMostly cloudy.18 mph79%30.17 "Hg10 mi
10:27 PM79 °FPassing clouds.20 mph79%30.17 "Hg10 mi
10:09 PM79 °FPartly cloudy.20 mph79%30.17 "Hg10 mi
9:56 PM78 °FOvercast.21 mph84%30.17 "Hg10 mi
8:56 PM79 °FOvercast.21 mph82%30.16 "Hg10 mi
7:56 PM78 °FOvercast.17 mph84%30.14 "Hg9 mi
6:56 PM79 °FMostly cloudy.18 mph82%30.13 "Hg8 mi
5:56 PM79 °FLight rain. More clouds than sun.18 mph82%30.11 "Hg9 mi
5:16 PM79 °FPartly sunny.21 mph84%30.11 "Hg9 mi
4:56 PM79 °FBroken clouds.20 mph84%30.11 "Hg8 mi
3:56 PM78 °FLight rain. Fog.16 mph87%30.10 "Hg5 mi
2:56 PM81 °FCloudy.18 mph79%30.11 "Hg9 mi
1:56 PM81 °FScattered clouds.18 mph79%30.11 "Hg9 mi
1:37 PM82 °FPartly sunny.17 mph79%30.11 "Hg9 mi
12:56 PM83 °FPassing clouds.17 mph77%30.10 "Hg9 mi
12:09 PM81 °FScattered clouds.17 mph84%30.12 "Hg8 mi
11:56 AM81 °FBroken clouds.18 mph82%30.11 "Hg10 mi
11:20 AM81 °FBroken clouds.14 mph84%30.13 "Hg8 mi
10:56 AM80 °FBroken clouds.18 mph85%30.11 "Hg9 mi
9:56 AM81 °FScattered clouds.17 mph85%30.11 "Hg7 mi
9:23 AM81 °FScattered clouds.18 mph84%30.11 "Hg7 mi
8:56 AM80 °FPartly sunny.20 mph85%30.09 "Hg9 mi
8:07 AM77 °FLight rain. Mostly cloudy.17 mph83%30.08 "Hg3 mi
7:56 AM78 °FMore clouds than sun.15 mph90%30.08 "Hg7 mi
7:25 AM77 °FHeavy rain. Fog.23 mph89%30.07 "Hg2 mi
6:56 AM78 °FBroken clouds.17 mph90%30.07 "Hg7 mi
6:38 AM79 °FMostly cloudy.17 mph84%30.06 "Hg7 mi
5:56 AM78 °FPassing clouds.17 mph87%30.06 "Hg10 mi
4:56 AM79 °FClear.16 mph82%30.05 "Hg9 mi
4:18 AM79 °FPassing clouds.17 mph84%30.04 "Hg8 mi
3:56 AM79 °FPassing clouds.17 mph84%30.03 "Hg8 mi
Weather by CustomWeather, © 2016

See weather overviewHow to use our weather pages